sat.trackr.live / text

‹ back to catalog

SHIYAN-33

NORAD 68405 · 2026-064A

PAYLOAD ACTIVE UNKNOWN

§ Identity

Operator
Country
PRC
Launch date
2026-03-27
Launch site
JSC
Launch vehicle
Mass (kg)
RCS (m²)

External: N2YO · Heavens-Above · Gunter

§ Orbital elements

Epoch: 2026-09-19T22:42:48.066624Z

Period
94.37 min
Inclination
97.4540°
Eccentricity
0.0024814
Mean motion
15.25958117 rev/d
Perigee alt
470.9 km
Apogee alt
504.9 km
Semi-major
6,866.0 km
B*
1.2375e-4
RAAN
338.0961°
Arg perigee
331.4881°
Mean anomaly
28.4998°
Rev number
2,693

§ Raw data

SHIYAN-331 68405U 26064A   26262.94638966  .00003129  00000+0  12375-3 0  99952 68405  97.4540 338.0961 0024814 331.4881  28.4998 15.25958117 26935

JSON: /api/v1/satellites/68405 · /tle

For live sub-satellite position, see the globe view (requires WebGL).

§ Visibility from observer

Set your observer location to see the next 7 days of passes ≥ 10°. The values pass through the URL so the page stays shareable.

No JS? Fill the form by hand. The geolocation button needs JavaScript.